Location: Beeston
(52.7000°N, 0.8167°E)
Time: 21:01:16
(UTC+00:00)

SL-08 R/B - Pass Details

Date: 15 May 2026
Orbit: 666 x 729 km, 98.5° (Epoch: 8 June)

Event Time Altitude Azimuth Distance (km) Brightness Sun altitude
Rises 21:18:06 0° 11° (NNE) 3,141 7.3 -10.8°
Reaches altitude 10° 21:20:27 10° 6° (N) 2,208 6.6 -11.0°
Maximum altitude 21:25:05 48° 294° (WNW) 921 4.4 -11.4°
Drops below altitude 10° 21:29:37 10° 220° (SW) 2,154 5.7 -11.8°
Sets 21:31:54 0° 215° (SW) 3,057 6.4 -12.0°
